Date String (YYYY-MM-DD hh:mm:ss) UTC,Instrument flags,absolute air pressure of the measurement (hPa),sample flow rate (lpm),inlet stack bypass flow (lpm),air temperature of the measurement (°C),ambient temperature measured by the external sensor (°C),aerosol sample conditioner tube jacket temperature (°C),OPC LED temperature (°C),internal box temperature (°C),relative humidity of the measurement (%),span deviation,mass concentration of particles derived from Lorenz-Mie calculation of OPC scattering (μg/m³),mass concentration of particles derived from Lorenz-Mie calculation of OPC scattering (μg/m³),mass concentration of particles derived from Lorenz-Mie calculation of OPC scattering (μg/m³)
DateTimeUTC,F1_M11,P_M11,Q1_M11,Q2_M11,T1_M11,T2_M11,T3_M11,T4_M11,T5_M11,U1_M11,ZSPAN_M11,X0_M11,X2_M11,X1_M11
2023-11-21 21:00:00,SystemResetWarning,0838.6,5.00,000.00,025.0,024.3,000.0,033.1,026.4,9.0,0000.0,0004.42,0001.24,0000.90
2023-11-21 21:01:00,SystemResetWarning,0838.6,5.00,000.00,025.0,024.3,000.0,033.1,026.4,9.0,0000.0,0005.13,0001.30,0000.90
2023-11-21 21:02:00,SystemResetWarning,0838.6,5.00,000.00,025.0,024.3,000.0,033.1,026.4,8.9,0000.0,0005.87,0001.33,0000.90
2023-11-21 21:03:00,SystemResetWarning,0838.6,5.00,000.00,025.1,024.3,000.0,033.1,026.4,9.0,0000.0,0006.79,0001.37,0000.90
2023-11-21 21:04:00,SystemResetWarning,0838.6,5.00,000.00,025.1,024.3,000.0,033.1,026.4,8.9,0000.0,0006.45,0001.38,0000.90
2023-11-21 21:05:00,SystemResetWarning,0838.6,4.99,000.00,025.1,024.3,000.0,033.1,026.4,8.8,0000.0,0006.19,0001.37,0000.90
2023-11-21 21:06:00,SystemResetWarning,0838.6,4.99,000.00,025.1,024.3,000.0,033.2,026.5,8.8,0000.0,0006.40,0001.35,0000.90
2023-11-21 21:07:00,SystemResetWarning,0838.6,5.01,000.00,025.1,024.3,000.0,033.2,026.5,8.9,0000.0,0007.38,0001.35,0000.90
2023-11-21 21:08:00,SystemResetWarning,0838.5,5.01,000.00,025.1,024.3,000.0,033.2,026.5,8.8,0000.0,0007.21,0001.38,0000.91
2023-11-21 21:09:00,SystemResetWarning,0838.6,5.00,000.00,025.1,024.4,000.0,033.2,026.5,8.8,0000.0,0006.97,0001.37,0000.90
2023-11-21 21:10:00,SystemResetWarning,0838.6,4.98,000.00,025.2,024.4,000.0,033.2,026.6,8.8,0000.0,0007.00,0001.37,0000.90
2023-11-21 21:11:00,SystemResetWarning,0838.6,4.99,000.00,025.2,024.4,000.0,033.2,026.6,8.8,0000.0,0006.87,0001.37,0000.90
2023-11-21 21:12:00,SystemResetWarning,0838.6,5.01,000.00,025.2,024.4,000.0,033.3,026.6,8.8,0000.0,0007.13,0001.32,0000.89
2023-11-21 21:13:00,SystemResetWarning,0838.6,5.01,000.00,025.2,024.5,000.0,033.3,026.6,8.7,0000.0,0006.12,0001.27,0000.88
2023-11-21 21:14:00,SystemResetWarning,0838.6,5.00,000.00,025.2,024.5,000.0,033.3,026.6,8.7,0000.0,0006.33,0001.26,0000.89
2023-11-21 21:15:00,SystemResetWarning,0838.6,4.99,000.00,025.3,024.5,000.0,033.3,026.6,8.8,0000.0,0007.10,0001.30,0000.90
2023-11-21 21:16:00,SystemResetWarning,0838.6,5.00,000.00,025.3,024.5,000.0,033.3,026.7,8.7,0000.0,0007.85,0001.29,0000.90
2023-11-21 21:17:00,SystemResetWarning,0838.6,4.99,000.00,025.3,024.5,000.0,033.3,026.7,8.7,0000.0,0008.08,0001.30,0000.89
2023-11-21 21:18:00,SystemResetWarning,0838.6,5.00,000.00,025.3,024.6,000.0,033.4,026.7,8.7,0000.0,0007.61,0001.32,0000.88
2023-11-21 21:19:00,SystemResetWarning,0838.6,5.00,000.00,025.3,024.6,000.0,033.4,026.7,8.7,0000.0,0007.73,0001.36,0000.87
2023-11-21 21:20:00,SystemResetWarning,0838.6,5.01,000.00,025.3,024.6,000.0,033.4,026.7,8.7,0000.0,0007.80,0001.36,0000.86
2023-11-21 21:21:00,SystemResetWarning,0838.6,5.01,000.00,025.4,024.6,000.0,033.4,026.8,8.6,0000.0,0009.24,0001.35,0000.87
2023-11-21 21:22:00,SystemResetWarning,0838.6,4.99,000.00,025.4,024.6,000.0,033.4,026.8,8.7,0000.0,0009.25,0001.37,0000.87
2023-11-21 21:23:00,SystemResetWarning,0838.6,5.00,000.00,025.4,024.7,000.0,033.4,026.8,8.8,0000.0,0008.93,0001.38,0000.88
2023-11-21 21:24:00,SystemResetWarning,0838.5,5.00,000.00,025.4,024.7,000.0,033.5,026.8,8.8,0000.0,0008.65,0001.37,0000.87
2023-11-21 21:25:00,SystemResetWarning,0838.5,5.00,000.00,025.4,024.7,000.0,033.5,026.8,8.7,0000.0,0008.31,0001.39,0000.88
2023-11-21 21:26:00,SystemResetWarning,0838.4,5.01,000.00,025.5,024.7,000.0,033.5,026.8,8.7,0000.0,0007.68,0001.36,0000.87
2023-11-21 21:27:00,SystemResetWarning,0838.4,5.00,000.00,025.5,024.7,000.0,033.5,026.9,8.7,0000.0,0007.23,0001.36,0000.87
2023-11-21 21:28:00,SystemResetWarning,0838.4,5.00,000.00,025.5,024.7,000.0,033.5,026.9,8.7,0000.0,0007.25,0001.41,0000.89
2023-11-21 21:29:00,SystemResetWarning,0838.4,5.01,000.00,025.5,024.7,000.0,033.5,026.9,8.7,0000.0,0007.19,0001.39,0000.91
2023-11-21 21:30:00,SystemResetWarning,0838.4,5.00,000.00,025.5,024.8,000.0,033.6,026.9,8.7,0000.0,0007.23,0001.40,0000.92
2023-11-21 21:31:00,SystemResetWarning,0838.5,4.99,000.00,025.5,024.8,000.0,033.6,026.9,8.7,0000.0,0007.75,0001.44,0000.93
2023-11-21 21:32:00,SystemResetWarning,0838.5,4.99,000.00,025.6,024.8,000.0,033.6,026.9,8.7,0000.0,0006.84,0001.46,0000.93
2023-11-21 21:33:00,SystemResetWarning,0838.6,5.00,000.00,025.6,024.8,000.0,033.6,026.9,8.7,0000.0,0007.20,0001.51,0000.93
2023-11-21 21:34:00,SystemResetWarning,0838.6,5.01,000.00,025.6,024.8,000.0,033.6,026.9,8.7,0000.0,0007.20,0001.53,0000.93
2023-11-21 21:35:00,SystemResetWarning,0838.6,5.01,000.00,025.6,024.8,000.0,033.6,027.0,8.7,0000.0,0007.27,0001.56,0000.94
2023-11-21 21:36:00,SystemResetWarning,0838.6,4.99,000.00,025.6,024.8,000.0,033.7,027.0,8.7,0000.0,0007.36,0001.57,0000.95
2023-11-21 21:37:00,SystemResetWarning,0838.6,4.99,000.00,025.6,024.8,000.0,033.7,027.0,8.7,0000.0,0007.67,0001.59,0000.97
2023-11-21 21:38:00,SystemResetWarning,0838.6,5.01,000.00,025.6,024.8,000.0,033.7,027.0,8.7,0000.0,0007.87,0001.64,0000.98
2023-11-21 21:39:00,SystemResetWarning,0838.6,5.00,000.00,025.7,024.9,000.0,033.7,027.0,8.7,0000.0,0007.74,0001.68,0000.99
2023-11-21 21:40:00,SystemResetWarning,0838.6,5.01,000.00,025.7,024.9,000.0,033.7,027.1,8.6,0000.0,0008.49,0001.69,0000.99
2023-11-21 21:41:00,SystemResetWarning,0838.5,5.00,000.00,025.7,024.9,000.0,033.7,027.1,8.6,0000.0,0008.44,0001.62,0001.00
2023-11-21 21:42:00,SystemResetWarning,0838.5,4.99,000.00,025.7,024.9,000.0,033.8,027.1,8.6,0000.0,0008.23,0001.66,0001.00
2023-11-21 21:43:00,SystemResetWarning,0838.5,5.00,000.00,025.7,024.9,000.0,033.8,027.1,8.6,0000.0,0007.60,0001.68,0001.01
2023-11-21 21:44:00,SystemResetWarning,0838.5,5.00,000.00,025.7,024.9,000.0,033.8,027.1,8.6,0000.0,0007.52,0001.67,0001.02
2023-11-21 21:45:00,SystemResetWarning,0838.6,5.00,000.00,025.7,024.9,000.0,033.8,027.1,8.6,0000.0,0007.64,0001.66,0001.03
2023-11-21 21:46:00,SystemResetWarning,0838.6,5.00,000.00,025.8,025.0,000.0,033.8,027.1,8.6,0000.0,0007.81,0001.68,0001.03
2023-11-21 21:47:00,SystemResetWarning,0838.6,5.00,000.00,025.8,025.0,000.0,033.8,027.1,8.6,0000.0,0008.11,0001.77,0001.03
2023-11-21 21:48:00,SystemResetWarning,0838.6,5.00,000.00,025.8,025.0,000.0,033.9,027.1,8.6,0000.0,0008.09,0001.80,0001.02
2023-11-21 21:49:00,SystemResetWarning,0838.6,5.00,000.00,025.8,025.0,000.0,033.9,027.1,8.6,0000.0,0008.47,0001.79,0001.03
2023-11-21 21:50:00,SystemResetWarning,0838.6,5.00,000.00,025.8,025.0,000.0,033.9,027.2,8.6,0000.0,0008.04,0001.74,0001.02
2023-11-21 21:51:00,SystemResetWarning,0838.6,5.00,000.00,025.8,025.0,000.0,033.9,027.2,8.6,0000.0,0007.31,0001.74,0001.01
2023-11-21 21:52:00,SystemResetWarning,0838.6,5.00,000.00,025.8,025.0,000.0,033.9,027.2,8.6,0000.0,0006.79,0001.73,0001.00
2023-11-21 21:53:00,SystemResetWarning,0838.6,5.00,000.00,025.8,025.0,000.0,033.9,027.2,8.6,0000.0,0006.92,0001.69,0001.00
2023-11-21 21:54:00,SystemResetWarning,0838.6,5.00,000.00,025.8,025.0,000.0,033.9,027.2,8.6,0000.0,0007.69,0001.67,0001.00
2023-11-21 21:55:00,SystemResetWarning,0838.6,5.00,000.00,025.9,025.0,000.0,033.9,027.2,8.6,0000.0,0007.41,0001.67,0001.00
2023-11-21 21:56:00,SystemResetWarning,0838.6,5.00,000.00,025.9,025.0,000.0,034.0,027.2,8.6,0000.0,0007.61,0001.65,0001.01
2023-11-21 21:57:00,SystemResetWarning,0838.6,5.00,000.00,025.9,025.1,000.0,034.0,027.2,8.6,0000.0,0008.07,0001.65,0001.01
2023-11-21 21:58:00,SystemResetWarning,0838.6,5.00,000.00,025.9,025.1,000.0,034.0,027.3,8.6,0000.0,0008.19,0001.60,0001.01
2023-11-21 21:59:00,SystemResetWarning,0838.6,5.00,000.00,025.9,025.1,000.0,034.0,027.3,8.6,0000.0,0008.98,0001.56,0001.02
